Location: Unspecified
(0.0000°N, 0.0000°E)
Time: 07:29:06
(UTC+00:00)

Megsat 1 - Visible Passes

Search period start: 10 June 2023 00:00
Search period end: 20 June 2023 00:00
Orbit: 570 x 646 km, 64.6° (Epoch: 09 June)

Date Brightness Start Highest point End Pass type
(mag) Time Alt. Az. Time Alt. Az. Time Alt. Az.
10 Jun 6.2 04:39:13 10° NNW 04:43:43 77° WSW 04:48:07 10° SSE visible
11 Jun 9.4 03:15:59 10° NE 03:17:52 12° ENE 03:19:44 10° E visible
11 Jun 7.1 04:53:25 10° NW 04:57:19 29° WSW 05:01:09 10° S visible
12 Jun 9.3 03:27:35 10° N 03:27:35 10° N 03:27:35 10° N visible
